Location: Bartshausen
(51.8454°N, 9.8167°E)
Time: 23:58:51
(UTC+00:00)

Iridium 4 Rocket - Visible Passes

Search period start: 15 February 2026 00:00
Search period end: 25 February 2026 00:00
Orbit: 580 x 885 km, 86.9° (Epoch: 15 February)

Date Brightness Start Highest point End Pass type
(mag) Time Alt. Az. Time Alt. Az. Time Alt. Az.
15 Feb 4.2 18:54:56 10° N 18:57:52 33° NNE 18:57:52 33° NNE visible
15 Feb 5.7 20:35:15 10° NNW 20:37:25 19° NW 20:37:25 19° NW visible
16 Feb 4.5 18:08:48 10° NNE 18:11:44 21° ENE 18:11:44 21° ENE visible
16 Feb 4.4 19:47:59 10° NNW 19:51:18 39° NW 19:51:18 39° NW visible
17 Feb 3.2 19:01:11 10° N 19:05:14 59° NE 19:05:14 59° NE visible
17 Feb 5.8 20:42:08 10° NW 20:44:48 16° WNW 20:44:48 16° WNW visible
18 Feb 3.9 18:14:50 10° NNE 18:18:50 29° ENE 18:19:16 28° E visible
18 Feb 4.6 19:54:29 10° NNW 19:58:40 35° W 19:58:51 35° W visible
19 Feb 4.9 17:29:20 10° NE 17:31:32 13° ENE 17:33:25 11° E visible
19 Feb 3.0 19:07:30 10° N 19:12:06 85° W 19:13:00 56° S visible
19 Feb 6.2 20:49:36 10° NW 20:50:55 11° WNW 20:52:12 10° W visible
20 Feb 3.5 18:20:57 10° N 18:25:13 39° E 18:27:20 23° SE visible
20 Feb 5.2 20:01:05 10° NNW 20:04:45 25° W 20:06:57 17° WSW visible
21 Feb 6.6 05:39:20 10° E 05:41:44 13° ENE 05:44:06 10° NE visible
21 Feb 4.5 17:34:58 10° NNE 17:38:02 18° ENE 17:40:58 10° ESE visible
21 Feb 3.6 19:13:52 10° N 19:18:17 58° W 19:21:36 15° SSW visible
22 Feb 3.0 18:27:07 10° N 18:31:32 57° E 18:35:39 10° SSE visible
22 Feb 5.8 20:07:51 10° NW 20:10:46 18° WNW 20:13:34 10° WSW visible
23 Feb 6.3 05:44:24 10° ESE 05:47:49 17° ENE 05:51:05 10° NE visible
23 Feb 4.1 17:40:52 10° NNE 17:44:28 24° ENE 17:47:54 10° SE visible
23 Feb 4.3 19:20:18 10° NNW 19:24:25 39° W 19:28:18 10° SSW visible
24 Feb 2.9 18:33:22 10° N 18:37:46 83° E 18:41:56 10° S visible
24 Feb 6.2 20:15:01 10° NW 20:16:45 12° WNW 20:18:26 10° W visible
